Location: Endfield
(51.6667°N, 0.0667°W)
Time: 20:01:42
(UTC+00:00)

Cosmos 494 Rocket - Pass Details

Date: 19 May 2024
Orbit: 740 x 768 km, 74.1° (Epoch: 14 June)

Event Time Altitude Azimuth Distance (km) Brightness Sun altitude
Exits shadow 22:00:57 - 203° (SSW) 2,554 6.3 -14.0°
Reaches altitude 10° 22:01:44 10° 204° (SSW) 2,245 6.1 -14.0°
Maximum altitude 22:06:50 89° 294° (WNW) 749 3.9 -14.4°
Drops below altitude 10° 22:11:59 10° 25° (NNE) 2,266 7.0 -14.7°
Sets 22:14:21 0° 26° (NNE) 3,197 7.8 -14.9°
